Time,TemperatureF,DewpointF,PressureIn,WindDirection,WindDirectionDegrees,WindSpeedMPH,WindSpeedGustMPH,Humidity,HourlyPrecipIn,Conditions,Clouds,dailyrainin,SoftwareType,DateUTC
2013-02-12 00:01:00,34.0,31.0,30.10,North,-999,-999.0,-999.0,90,0.00,,,0.11,,2013-02-12 07:01:00,
2013-02-12 00:21:00,34.0,32.0,30.13,North,-999,-999.0,-999.0,91,0.00,,,0.11,,2013-02-12 07:21:00,
2013-02-12 00:31:00,34.0,32.0,30.14,North,-999,-999.0,-999.0,91,0.00,,,0.11,,2013-02-12 07:31:00,
2013-02-12 00:41:00,34.0,32.0,30.14,North,-999,-999.0,-999.0,91,0.00,,,0.11,,2013-02-12 07:41:00,
2013-02-12 00:51:00,34.0,32.0,30.14,North,-999,-999.0,-999.0,91,0.00,,,0.11,,2013-02-12 07:51:00,
2013-02-12 01:01:00,34.0,32.0,30.13,North,-999,-999.0,-999.0,91,0.00,,,0.11,,2013-02-12 08:01:00,
2013-02-12 01:11:00,34.0,32.0,30.13,North,-999,-999.0,-999.0,91,0.00,,,0.11,,2013-02-12 08:11:00,
2013-02-12 01:21:00,34.0,32.0,30.13,North,-999,-999.0,-999.0,91,0.00,,,0.11,,2013-02-12 08:21:00,
2013-02-12 01:31:00,34.0,32.0,30.13,North,-999,-999.0,-999.0,91,0.00,,,0.11,,2013-02-12 08:31:00,
2013-02-12 01:41:00,34.0,32.0,30.13,North,-999,-999.0,-999.0,91,0.00,,,0.11,,2013-02-12 08:41:00,
2013-02-12 01:52:00,34.0,31.0,30.13,North,-999,-999.0,-999.0,90,0.00,,,0.11,,2013-02-12 08:52:00,
2013-02-12 02:01:00,34.0,31.0,30.13,North,-999,-999.0,-999.0,90,0.00,,,0.11,,2013-02-12 09:01:00,
2013-02-12 02:11:00,34.0,31.0,30.13,North,-999,-999.0,-999.0,90,0.00,,,0.11,,2013-02-12 09:11:00,
2013-02-12 02:21:00,34.0,31.0,30.13,North,-999,-999.0,-999.0,90,0.00,,,0.11,,2013-02-12 09:21:00,
2013-02-12 02:32:00,35.0,32.0,30.14,North,-999,-999.0,-999.0,90,0.00,,,0.11,,2013-02-12 09:32:00,
2013-02-12 02:42:00,35.0,32.0,30.13,North,-999,-999.0,-999.0,89,0.00,,,0.11,,2013-02-12 09:42:00,
2013-02-12 02:52:00,35.0,32.0,30.13,North,-999,-999.0,-999.0,89,0.00,,,0.11,,2013-02-12 09:52:00,
2013-02-12 03:01:00,35.0,32.0,30.13,North,-999,-999.0,-999.0,90,0.00,,,0.11,,2013-02-12 10:01:00,
2013-02-12 03:11:00,35.0,32.0,30.13,North,-999,-999.0,-999.0,90,0.00,,,0.11,,2013-02-12 10:11:00,
2013-02-12 03:21:00,35.0,32.0,30.13,North,-999,-999.0,-999.0,90,0.00,,,0.11,,2013-02-12 10:21:00,
2013-02-12 03:31:00,34.0,31.0,30.14,North,-999,-999.0,-999.0,90,0.00,,,0.11,,2013-02-12 10:31:00,
2013-02-12 03:43:00,34.0,31.0,30.14,North,-999,-999.0,-999.0,90,0.00,,,0.11,,2013-02-12 10:43:00,
2013-02-12 03:51:00,34.0,31.0,30.14,North,-999,-999.0,-999.0,90,0.00,,,0.11,,2013-02-12 10:51:00,
2013-02-12 04:01:00,34.0,31.0,30.14,North,-999,-999.0,-999.0,90,0.00,,,0.11,,2013-02-12 11:01:00,
2013-02-12 04:11:00,34.0,31.0,30.14,North,-999,-999.0,-999.0,90,0.00,,,0.11,,2013-02-12 11:11:00,
2013-02-12 04:21:00,34.0,31.0,30.14,North,-999,-999.0,-999.0,90,0.00,,,0.11,,2013-02-12 11:21:00,
2013-02-12 04:31:00,34.0,31.0,30.12,North,-999,-999.0,-999.0,89,0.00,,,0.11,,2013-02-12 11:31:00,
2013-02-12 04:41:00,34.0,31.0,30.12,North,-999,-999.0,-999.0,89,0.00,,,0.11,,2013-02-12 11:41:00,
2013-02-12 04:52:00,34.0,31.0,30.13,North,-999,-999.0,-999.0,88,0.00,,,0.11,,2013-02-12 11:52:00,
2013-02-12 05:01:00,34.0,31.0,30.13,North,-999,-999.0,-999.0,88,0.00,,,0.11,,2013-02-12 12:01:00,
2013-02-12 05:11:00,34.0,31.0,30.13,North,-999,-999.0,-999.0,88,0.00,,,0.11,,2013-02-12 12:11:00,
2013-02-12 05:21:00,34.0,31.0,30.13,North,-999,-999.0,-999.0,88,0.00,,,0.11,,2013-02-12 12:21:00,
2013-02-12 05:32:00,33.0,30.0,30.14,North,-999,-999.0,-999.0,88,0.00,,,0.11,,2013-02-12 12:32:00,
2013-02-12 05:41:00,33.0,30.0,30.14,North,-999,-999.0,-999.0,88,0.00,,,0.11,,2013-02-12 12:41:00,
2013-02-12 05:52:00,33.0,30.0,30.14,North,-999,-999.0,-999.0,88,0.00,,,0.11,,2013-02-12 12:52:00,
2013-02-12 06:01:00,32.0,29.0,30.14,North,-999,-999.0,-999.0,88,0.00,,,0.11,,2013-02-12 13:01:00,
2013-02-12 06:11:00,32.0,29.0,30.15,North,-999,-999.0,-999.0,88,0.00,,,0.11,,2013-02-12 13:11:00,
2013-02-12 06:21:00,32.0,29.0,30.15,North,-999,-999.0,-999.0,88,0.00,,,0.11,,2013-02-12 13:21:00,
2013-02-12 06:31:00,31.0,28.0,30.15,North,-999,-999.0,-999.0,89,0.00,,,0.11,,2013-02-12 13:31:00,
2013-02-12 06:42:00,31.0,28.0,30.15,North,-999,-999.0,-999.0,89,0.00,,,0.11,,2013-02-12 13:42:00,
2013-02-12 06:51:00,31.0,28.0,30.16,North,-999,-999.0,-999.0,89,0.00,,,0.11,,2013-02-12 13:51:00,
2013-02-12 07:01:00,30.0,27.0,30.16,North,-999,-999.0,-999.0,89,0.00,,,0.11,,2013-02-12 14:01:00,
2013-02-12 07:11:00,30.0,27.0,30.16,North,-999,-999.0,-999.0,89,0.00,,,0.11,,2013-02-12 14:11:00,
2013-02-12 07:21:00,31.0,28.0,30.16,North,-999,-999.0,-999.0,89,0.00,,,0.11,,2013-02-12 14:21:00,
2013-02-12 07:31:00,31.0,28.0,30.17,North,-999,-999.0,-999.0,89,0.00,,,0.11,,2013-02-12 14:31:00,
2013-02-12 07:41:00,31.0,28.0,30.17,North,-999,-999.0,-999.0,89,0.00,,,0.11,,2013-02-12 14:41:00,
2013-02-12 07:52:00,31.0,28.0,30.18,North,-999,-999.0,-999.0,89,0.00,,,0.11,,2013-02-12 14:52:00,
2013-02-12 08:01:00,32.0,29.0,30.18,North,-999,-999.0,-999.0,90,0.00,,,0.11,,2013-02-12 15:01:00,
2013-02-12 08:11:00,33.0,30.0,30.19,North,-999,-999.0,-999.0,90,0.00,,,0.11,,2013-02-12 15:11:00,
2013-02-12 08:21:00,33.0,30.0,30.19,North,-999,-999.0,-999.0,90,0.00,,,0.11,,2013-02-12 15:21:00,
2013-02-12 08:32:00,33.0,30.0,30.19,North,-999,-999.0,-999.0,90,0.00,,,0.11,,2013-02-12 15:32:00,
2013-02-12 08:41:00,33.0,30.0,30.19,North,-999,-999.0,-999.0,90,0.00,,,0.11,,2013-02-12 15:41:00,
2013-02-12 08:52:00,36.0,33.0,30.20,North,-999,-999.0,-999.0,88,0.00,,,0.11,,2013-02-12 15:52:00,
2013-02-12 09:01:00,36.0,31.0,30.21,North,-999,-999.0,-999.0,82,0.00,,,0.11,,2013-02-12 16:01:00,
2013-02-12 09:11:00,36.0,31.0,30.21,North,-999,-999.0,-999.0,82,0.00,,,0.11,,2013-02-12 16:11:00,
2013-02-12 09:21:00,36.0,32.0,30.21,North,-999,-999.0,-999.0,84,0.00,,,0.11,,2013-02-12 16:21:00,
2013-02-12 09:31:00,35.0,31.0,30.22,North,-999,-999.0,-999.0,84,0.00,,,0.11,,2013-02-12 16:31:00,
2013-02-12 09:41:00,35.0,31.0,30.22,North,-999,-999.0,-999.0,84,0.00,,,0.11,,2013-02-12 16:41:00,
2013-02-12 09:51:00,36.0,32.0,30.22,North,-999,-999.0,-999.0,84,0.00,,,0.11,,2013-02-12 16:51:00,
2013-02-12 10:01:00,39.0,31.0,30.22,North,-999,-999.0,-999.0,74,0.00,,,0.11,,2013-02-12 17:01:00,
2013-02-12 10:11:00,40.0,31.0,30.23,North,-999,-999.0,-999.0,71,0.00,,,0.11,,2013-02-12 17:11:00,
2013-02-12 10:21:00,40.0,31.0,30.23,North,-999,-999.0,-999.0,71,0.00,,,0.11,,2013-02-12 17:21:00,
2013-02-12 10:31:00,44.0,32.0,30.23,North,-999,-999.0,-999.0,63,0.00,,,0.11,,2013-02-12 17:31:00,
2013-02-12 10:41:00,44.0,32.0,30.23,North,-999,-999.0,-999.0,63,0.00,,,0.11,,2013-02-12 17:41:00,
2013-02-12 10:52:00,44.0,32.0,30.23,North,-999,-999.0,-999.0,63,0.00,,,0.11,,2013-02-12 17:52:00,
2013-02-12 11:01:00,43.0,30.0,30.23,North,-999,-999.0,-999.0,61,0.00,,,0.11,,2013-02-12 18:01:00,
2013-02-12 11:11:00,43.0,30.0,30.23,North,-999,-999.0,-999.0,61,0.00,,,0.11,,2013-02-12 18:11:00,
2013-02-12 11:22:00,43.0,30.0,30.23,North,-999,-999.0,-999.0,61,0.00,,,0.11,,2013-02-12 18:22:00,
2013-02-12 11:31:00,44.0,31.0,30.23,North,-999,-999.0,-999.0,59,0.00,,,0.11,,2013-02-12 18:31:00,
2013-02-12 11:41:00,44.0,31.0,30.23,North,-999,-999.0,-999.0,59,0.00,,,0.11,,2013-02-12 18:41:00,
2013-02-12 11:52:00,44.0,31.0,30.23,North,-999,-999.0,-999.0,59,0.00,,,0.11,,2013-02-12 18:52:00,
2013-02-12 12:01:00,46.0,30.0,30.23,North,-999,-999.0,-999.0,54,0.00,,,0.11,,2013-02-12 19:01:00,
2013-02-12 12:11:00,46.0,30.0,30.23,North,-999,-999.0,-999.0,54,0.00,,,0.11,,2013-02-12 19:11:00,
2013-02-12 12:21:00,46.0,30.0,30.23,North,-999,-999.0,-999.0,54,0.00,,,0.11,,2013-02-12 19:21:00,
2013-02-12 12:31:00,46.0,29.0,30.21,North,-999,-999.0,-999.0,52,0.00,,,0.11,,2013-02-12 19:31:00,
2013-02-12 12:41:00,47.0,30.0,30.21,North,-999,-999.0,-999.0,51,0.00,,,0.11,,2013-02-12 19:41:00,
2013-02-12 12:52:00,47.0,30.0,30.21,North,-999,-999.0,-999.0,51,0.00,,,0.11,,2013-02-12 19:52:00,
2013-02-12 13:01:00,47.0,28.0,30.20,North,-999,-999.0,-999.0,48,0.00,,,0.11,,2013-02-12 20:01:00,
2013-02-12 13:11:00,49.0,29.0,30.19,North,-999,-999.0,-999.0,46,0.00,,,0.11,,2013-02-12 20:11:00,
2013-02-12 13:21:00,49.0,29.0,30.19,North,-999,-999.0,-999.0,46,0.00,,,0.11,,2013-02-12 20:21:00,
2013-02-12 13:31:00,49.0,27.0,30.17,North,-999,-999.0,-999.0,43,0.00,,,0.11,,2013-02-12 20:31:00,
2013-02-12 13:41:00,50.0,27.0,30.17,North,-999,-999.0,-999.0,40,0.00,,,0.11,,2013-02-12 20:41:00,
2013-02-12 13:51:00,50.0,27.0,30.17,North,-999,-999.0,-999.0,40,0.00,,,0.11,,2013-02-12 20:51:00,
2013-02-12 14:01:00,50.0,24.0,30.16,North,-999,-999.0,-999.0,36,0.00,,,0.10,,2013-02-12 21:01:00,
2013-02-12 14:11:00,50.0,24.0,30.16,North,-999,-999.0,-999.0,36,0.00,,,0.10,,2013-02-12 21:11:00,
2013-02-12 14:21:00,50.0,24.0,30.16,North,-999,-999.0,-999.0,36,0.00,,,0.10,,2013-02-12 21:21:00,
2013-02-12 14:31:00,49.0,27.0,30.15,North,-999,-999.0,-999.0,43,0.00,,,0.09,,2013-02-12 21:31:00,
2013-02-12 14:41:00,48.0,28.0,30.15,North,-999,-999.0,-999.0,45,0.00,,,0.09,,2013-02-12 21:41:00,
2013-02-12 14:52:00,48.0,28.0,30.15,North,-999,-999.0,-999.0,45,0.00,,,0.09,,2013-02-12 21:52:00,
2013-02-12 15:01:00,48.0,29.0,30.14,North,-999,-999.0,-999.0,47,0.00,,,0.08,,2013-02-12 22:01:00,
2013-02-12 15:11:00,48.0,28.0,30.14,North,-999,-999.0,-999.0,46,0.00,,,0.08,,2013-02-12 22:11:00,
2013-02-12 15:21:00,48.0,28.0,30.14,North,-999,-999.0,-999.0,46,0.00,,,0.08,,2013-02-12 22:21:00,
2013-02-12 15:31:00,48.0,29.0,30.14,North,-999,-999.0,-999.0,47,0.00,,,0.05,,2013-02-12 22:31:00,
2013-02-12 15:41:00,48.0,29.0,30.14,North,-999,-999.0,-999.0,47,0.00,,,0.05,,2013-02-12 22:41:00,
2013-02-12 15:51:00,48.0,29.0,30.14,North,-999,-999.0,-999.0,48,0.00,,,0.04,,2013-02-12 22:51:00,
2013-02-12 16:01:00,49.0,29.0,30.13,North,-999,-999.0,-999.0,46,0.00,,,0.02,,2013-02-12 23:01:00,
2013-02-12 16:11:00,48.0,28.0,30.13,North,-999,-999.0,-999.0,46,0.00,,,0.02,,2013-02-12 23:11:00,
2013-02-12 16:21:00,48.0,28.0,30.13,North,-999,-999.0,-999.0,46,0.00,,,0.02,,2013-02-12 23:21:00,
2013-02-12 16:31:00,50.0,28.0,30.14,North,-999,-999.0,-999.0,43,0.00,,,0.00,,2013-02-12 23:31:00,
2013-02-12 16:41:00,50.0,28.0,30.14,North,-999,-999.0,-999.0,43,0.00,,,0.00,,2013-02-12 23:41:00,
2013-02-12 16:52:00,50.0,28.0,30.13,North,-999,-999.0,-999.0,43,0.00,,,0.00,,2013-02-12 23:52:00,
2013-02-12 17:02:00,49.0,27.0,30.13,North,-999,-999.0,-999.0,43,0.00,,,0.00,,2013-02-13 00:02:00,
2013-02-12 17:11:00,49.0,27.0,30.13,North,-999,-999.0,-999.0,43,0.00,,,0.00,,2013-02-13 00:11:00,
2013-02-12 17:21:00,49.0,27.0,30.13,North,-999,-999.0,-999.0,43,0.00,,,0.00,,2013-02-13 00:21:00,
2013-02-12 17:32:00,48.0,27.0,30.13,North,-999,-999.0,-999.0,43,0.00,,,0.00,,2013-02-13 00:32:00,
2013-02-12 17:41:00,48.0,27.0,30.13,North,-999,-999.0,-999.0,43,0.00,,,0.00,,2013-02-13 00:41:00,
2013-02-12 17:52:00,48.0,27.0,30.13,North,-999,-999.0,-999.0,43,0.00,,,0.00,,2013-02-13 00:52:00,
2013-02-12 18:01:00,47.0,26.0,30.14,North,-999,-999.0,-999.0,44,0.00,,,0.00,,2013-02-13 01:01:00,
2013-02-12 18:11:00,47.0,26.0,30.14,North,-999,-999.0,-999.0,44,0.00,,,0.00,,2013-02-13 01:11:00,
2013-02-12 18:21:00,47.0,26.0,30.14,North,-999,-999.0,-999.0,44,0.00,,,0.00,,2013-02-13 01:21:00,
2013-02-12 18:31:00,46.0,26.0,30.14,North,-999,-999.0,-999.0,45,0.00,,,0.00,,2013-02-13 01:31:00,
2013-02-12 18:42:00,44.0,25.0,30.15,North,-999,-999.0,-999.0,46,0.00,,,0.00,,2013-02-13 01:42:00,
2013-02-12 18:52:00,44.0,25.0,30.15,North,-999,-999.0,-999.0,46,0.00,,,0.00,,2013-02-13 01:52:00,
2013-02-12 19:01:00,44.0,25.0,30.15,North,-999,-999.0,-999.0,46,0.00,,,0.00,,2013-02-13 02:01:00,
2013-02-12 19:11:00,44.0,25.0,30.15,North,-999,-999.0,-999.0,46,0.00,,,0.00,,2013-02-13 02:11:00,
2013-02-12 19:21:00,44.0,25.0,30.15,North,-999,-999.0,-999.0,46,0.00,,,0.00,,2013-02-13 02:21:00,
2013-02-12 19:31:00,44.0,26.0,30.16,North,-999,-999.0,-999.0,48,0.00,,,0.00,,2013-02-13 02:31:00,
2013-02-12 19:41:00,44.0,26.0,30.16,North,-999,-999.0,-999.0,48,0.00,,,0.00,,2013-02-13 02:41:00,
2013-02-12 19:52:00,44.0,26.0,30.16,North,-999,-999.0,-999.0,48,0.00,,,0.00,,2013-02-13 02:52:00,
2013-02-12 20:01:00,44.0,25.0,30.15,North,-999,-999.0,-999.0,47,0.00,,,0.00,,2013-02-13 03:01:00,
2013-02-12 20:11:00,44.0,25.0,30.16,North,-999,-999.0,-999.0,46,0.00,,,0.00,,2013-02-13 03:11:00,
2013-02-12 20:21:00,44.0,25.0,30.16,North,-999,-999.0,-999.0,46,0.00,,,0.00,,2013-02-13 03:21:00,
2013-02-12 20:32:00,44.0,24.0,30.16,North,-999,-999.0,-999.0,45,0.00,,,0.00,,2013-02-13 03:32:00,
2013-02-12 20:41:00,44.0,24.0,30.16,North,-999,-999.0,-999.0,45,0.00,,,0.00,,2013-02-13 03:41:00,
2013-02-12 20:51:00,44.0,24.0,30.16,North,-999,-999.0,-999.0,45,0.00,,,0.00,,2013-02-13 03:51:00,
2013-02-12 21:01:00,43.0,23.0,30.16,North,-999,-999.0,-999.0,45,0.00,,,0.00,,2013-02-13 04:01:00,
2013-02-12 21:11:00,43.0,23.0,30.16,North,-999,-999.0,-999.0,45,0.00,,,0.00,,2013-02-13 04:11:00,
2013-02-12 21:21:00,43.0,24.0,30.16,North,-999,-999.0,-999.0,46,0.00,,,0.00,,2013-02-13 04:21:00,
2013-02-12 21:31:00,43.0,24.0,30.16,North,-999,-999.0,-999.0,47,0.00,,,0.00,,2013-02-13 04:31:00,
2013-02-12 21:41:00,43.0,24.0,30.16,North,-999,-999.0,-999.0,47,0.00,,,0.00,,2013-02-13 04:41:00,
2013-02-12 21:51:00,43.0,24.0,30.16,North,-999,-999.0,-999.0,47,0.00,,,0.00,,2013-02-13 04:51:00,
2013-02-12 22:01:00,42.0,23.0,30.16,North,-999,-999.0,-999.0,46,0.00,,,0.00,,2013-02-13 05:01:00,
2013-02-12 22:11:00,42.0,23.0,30.16,North,-999,-999.0,-999.0,46,0.00,,,0.00,,2013-02-13 05:11:00,
2013-02-12 22:22:00,42.0,23.0,30.16,North,-999,-999.0,-999.0,46,0.00,,,0.00,,2013-02-13 05:22:00,
2013-02-12 22:31:00,41.0,26.0,30.17,North,-999,-999.0,-999.0,54,0.00,,,0.00,,2013-02-13 05:31:00,
2013-02-12 22:41:00,41.0,26.0,30.17,North,-999,-999.0,-999.0,54,0.00,,,0.00,,2013-02-13 05:41:00,
2013-02-12 22:52:00,40.0,26.0,30.17,North,-999,-999.0,-999.0,57,0.00,,,0.00,,2013-02-13 05:52:00,
2013-02-12 23:01:00,38.0,26.0,30.16,North,-999,-999.0,-999.0,62,0.00,,,0.00,,2013-02-13 06:01:00,
2013-02-12 23:11:00,38.0,26.0,30.16,North,-999,-999.0,-999.0,61,0.00,,,0.00,,2013-02-13 06:11:00,
2013-02-12 23:21:00,38.0,26.0,30.16,North,-999,-999.0,-999.0,61,0.00,,,0.00,,2013-02-13 06:21:00,
2013-02-12 23:31:00,38.0,25.0,30.16,North,-999,-999.0,-999.0,59,0.00,,,0.00,,2013-02-13 06:31:00,
2013-02-12 23:41:00,38.0,25.0,30.15,North,-999,-999.0,-999.0,58,0.00,,,0.00,,2013-02-13 06:41:00,
2013-02-12 23:51:00,38.0,25.0,30.15,North,-999,-999.0,-999.0,58,0.00,,,0.00,,2013-02-13 06:51:00,